Temp
-8 -8 -8 -8 -8 -7 -7 -7 -7 -6 -6 -6 -6 -6 -5 -5 -5 -5 -5 -5 -5 -5 -5 -5 -5 -5 -5 -6 -5 -5 -5 -5 -5 -5 -5 -6 -6 -6 -7 -7 -8 -8 -8
-9 -8 -8 -8 -8 -8 -8 -7 -7 -7 -7 -7 -6 -6 -6 -6 -6 -6 -5 -5 -5 -5 -5 -5 -5 -5 -5 -5 -6 -6 -6 -6 -6 -6 -6 -6 -6 -6 -6 -7 -7 -8 -8
-9 -9 -8 -8 -8 -8 -8 -8 -8 -8 -7 -8 -7 -7 -7 -7 -6 -6 -6 -6 -6 -6 -6 -6 -6 -5 -6 -6 -6 -6 -6 -6 -6 -6 -6 -6 -6 -6 -7 -7 -7 -7 -7
-9 -9 -9 -9 -9 -8 -8 -8 -8 -8 -8 -8 -8 -8 -7 -7 -7 -7 -7 -7 -7 -6 -6 -7 -6 -6 -6 -6 -6 -6 -6 -6 -6 -6 -6 -6 -6 -7 -7 -7 -7 -7 -7
-9 -9 -9 -9 -8 -9 -8 -8 -8 -8 -8 -9 -9 -9 -8 -8 -8 -8 -7 -7 -7 -7 -7 -6 -6 -6 -6 -6 -6 -6 -6 -6 -6 -6 -7 -6 -6 -6 -7 -7 -7 -8 -7
-10 -9 -9 -9 -9 -9 -9 -9 -9 -8 -9 -9 -9 -9 -9 -9 -8 -8 -8 -8 -7 -7 -7 -7 -7 -6 -6 -6 -6 -6 -6 -7 -6 -6 -6 -7 -7 -7 -7 -7 -8 -8 -8
-10 -10 -10 -10 -10 -9 -9 -9 -9 -9 -9 -9 -9 -9 -9 -9 -9 -9 -8 -8 -8 -8 -8 -7 -7 -7 -7 -7 -7 -6 -6 -7 -7 -7 -7 -7 -7 -7 -8 -8 -8 -8 -8
-11 -11 -11 -10 -10 -10 -10 -9 -9 -9 -9 -9 -9 -9 -9 -9 -9 -9 -9 -9 -9 -8 -8 -8 -8 -8 -8 -8 -7 -7 -7 -7 -7 -7 -7 -7 -7 -7 -8 -8 -8 -8 -8
-11 -11 -11 -11 -11 -11 -10 -10 -10 -10 -9 -9 -9 -9 -9 -9 -9 -9 -9 -9 -9 -9 -9 -9 -9 -9 -8 -8 -8 -8 -8 -8 -8 -8 -8 -8 -8 -8 -8 -9 -9 -9 -8
-11 -11 -11 -11 -11 -11 -11 -11 -11 -11 -10 -10 -10 -10 -10 -10 -10 -10 -10 -10 -10 -9 -9 -9 -9 -9 -9 -9 -9 -9 -9 -9 -8 -9 -8 -8 -8 -8 -8 -9 -9 -9 -9
-12 -12 -12 -12 -12 -12 -12 -12 -11 -11 -11 -11 -11 -11 -11 -11 -10 -10 -10 -10 -10 -10 -10 -10 -10 -10 -10 -10 -10 -9 -9 -9 -9 -9 -9 -9 -9 -9 -9 -9 -9 -9 -9
-12 -12 -12 -12 -12 -12 -12 -12 -12 -12 -11 -11 -11 -11 -11 -11 -11 -11 -11 -10 -10 -10 -10 -10 -10 -10 -10 -10 -10 -10 -10 -10 -10 -10 -10 -10 -10 -10 -9 -9 -9 -9 -9
-12 -12 -12 -12 -12 -12 -12 -12 -12 -12 -11 -11 -11 -11 -11 -11 -11 -11 -11 -11 -11 -10 -10 -10 -10 -10 -10 -10 -10 -10 -10 -10 -10 -10 -10 -10 -10 -10 -10 -10 -10 -10 -9
-12 -12 -12 -12 -12 -12 -12 -12 -12 -12 -11 -11 -11 -11 -11 -11 -11 -11 -11 -11 -11 -11 -11 -11 -10 -10 -10 -10 -10 -10 -10 -10 -10 -10 -10 -10 -10 -10 -10 -10 -10 -10 -10
-12 -12 -12 -12 -12 -12 -12 -12 -11 -11 -11 -11 -11 -11 -11 -11 -11 -11 -11 -11 -11 -11 -11 -11 -11 -11 -10 -10 -10 -10 -10 -10 -10 -10 -10 -10 -10 -10 -10 -10 -10 -11 -10
-12 -12 -12 -12 -12 -12 -12 -11 -11 -11 -11 -11 -11 -11 -11 -11 -11 -11 -11 -11 -11 -11 -11 -11 -11 -11 -11 -11 -11 -10 -10 -10 -10 -10 -10 -10 -10 -10 -10 -10 -10 -11 -11
-12 -12 -12 -12 -12 -12 -12 -12 -12 -12 -12 -12 -12 -12 -12 -11 -11 -11 -11 -11 -11 -11 -11 -11 -11 -11 -11 -11 -11 -11 -11 -11 -11 -10 -10 -10 -10 -10 -10 -10 -10 -10 -11
-12 -12 -12 -12 -12 -12 -12 -12 -12 -12 -12 -12 -12 -12 -12 -12 -12 -12 -12 -12 -12 -11 -11 -11 -11 -11 -11 -11 -11 -11 -11 -11 -11 -11 -11 -11 -11 -10 -10 -10 -10 -10 -10
-12 -12 -12 -12 -12 -12 -12 -12 -12 -12 -12 -13 -13 -13 -13 -13 -12 -12 -12 -12 -12 -12 -12 -12 -11 -11 -11 -11 -11 -11 -11 -11 -11 -11 -11 -11 -11 -11 -11 -10 -10 -10 -10
-13 -13 -13 -13 -13 -12 -13 -13 -13 -13 -13 -13 -13 -13 -13 -13 -13 -13 -13 -13 -13 -13 -12 -12 -12 -12 -12 -12 -12 -12 -11 -11 -11 -11 -11 -11 -11 -11 -11 -11 -11 -10 -10
-13 -13 -13 -13 -13 -13 -13 -13 -13 -13 -13 -13 -13 -13 -13 -13 -13 -13 -13 -13 -13 -13 -13 -13 -13 -12 -12 -12 -12 -12 -12 -12 -12 -12 -12 -12 -12 -11 -11 -11 -11 -11 -10
-14 -14 -14 -14 -14 -14 -14 -14 -14 -14 -14 -14 -14 -14 -13 -13 -14 -13 -13 -13 -13 -13 -13 -13 -13 -13 -12 -12 -12 -12 -12 -12 -12 -12 -12 -12 -11 -11 -11 -11 -11 -11 -11
-14 -14 -14 -14 -14 -14 -14 -14 -14 -14 -14 -14 -14 -14 -14 -14 -14 -14 -13 -13 -13 -13 -13 -13 -13 -13 -13 -13 -12 -12 -12 -12 -12 -12 -12 -11 -11 -11 -11 -11 -11 -11 -11
-15 -15 -15 -15 -15 -15 -15 -15 -15 -15 -14 -14 -14 -14 -14 -14 -14 -14 -14 -14 -14 -14 -13 -13 -13 -13 -13 -13 -13 -12 -12 -12 -12 -12 -13 -12 -11 -11 -11 -11 -11 -11 -11
-15 -15 -15 -15 -15 -15 -15 -15 -15 -15 -15 -15 -15 -14 -14 -14 -14 -14 -14 -14 -14 -14 -14 -14 -13 -13 -13 -13 -13 -13 -13 -12 -12 -11 -11 -12 -12 -12 -11 -11 -11 -11 -11
-16 -16 -16 -16 -16 -16 -16 -16 -16 -15 -15 -15 -15 -15 -15 -15 -15 -15 -15 -15 -15 -14 -14 -14 -14 -14 -14 -14 -14 -13 -13 -13 -13 -12 -12 -11 -11 -12 -12 -12 -11 -11 -11
Height
5855 5856 5857 5859 5860 5861 5862 5863 5863 5866 5867 5868 5869 5871 5872 5873 5875 5875 5875 5876 5877 5878 5879 5878 5877 5878 5878 5881 5880 5878 5878 5878 5878 5876 5875 5874 5873 5873 5873 5872 5872 5871 5870
5853 5854 5855 5857 5858 5859 5860 5862 5863 5864 5865 5867 5868 5869 5870 5872 5873 5873 5875 5875 5876 5876 5876 5876 5878 5878 5880 5878 5879 5878 5880 5879 5878 5878 5877 5875 5873 5873 5873 5872 5870 5870 5871
5850 5852 5853 5854 5856 5857 5858 5859 5860 5862 5863 5865 5867 5868 5869 5869 5870 5872 5873 5874 5874 5875 5875 5876 5877 5877 5878 5879 5878 5877 5879 5878 5878 5877 5877 5876 5875 5873 5873 5872 5872 5871 5870
5848 5850 5851 5852 5853 5855 5855 5857 5857 5859 5861 5862 5864 5865 5866 5866 5867 5868 5869 5871 5872 5874 5874 5874 5875 5876 5878 5877 5877 5877 5877 5876 5876 5877 5876 5875 5875 5875 5873 5873 5873 5872 5871
5846 5847 5848 5849 5850 5852 5853 5854 5854 5856 5857 5858 5861 5862 5863 5864 5865 5865 5866 5867 5868 5869 5870 5872 5873 5873 5873 5873 5875 5877 5874 5874 5874 5875 5874 5874 5875 5875 5874 5873 5873 5873 5872
5843 5845 5845 5846 5847 5849 5850 5851 5852 5853 5854 5855 5856 5858 5859 5860 5861 5862 5863 5864 5865 5866 5867 5868 5870 5870 5870 5870 5872 5872 5870 5870 5871 5871 5872 5872 5872 5872 5872 5872 5871 5871 5871
5840 5841 5842 5843 5843 5845 5846 5848 5848 5848 5850 5851 5853 5854 5855 5856 5857 5858 5859 5860 5861 5861 5862 5863 5864 5865 5866 5866 5866 5867 5868 5868 5869 5867 5866 5866 5868 5868 5868 5868 5868 5869 5868
5835 5837 5838 5839 5840 5841 5842 5843 5844 5844 5845 5847 5848 5849 5850 5852 5853 5853 5854 5855 5856 5857 5858 5858 5859 5860 5861 5861 5862 5863 5864 5864 5864 5864 5863 5863 5863 5865 5865 5865 5865 5865 5865
5832 5834 5835 5836 5837 5838 5838 5838 5840 5840 5841 5841 5843 5844 5845 5847 5847 5848 5848 5849 5850 5851 5852 5852 5853 5854 5856 5857 5857 5857 5857 5858 5860 5861 5860 5860 5860 5859 5861 5861 5862 5862 5862
5829 5831 5831 5832 5833 5834 5834 5835 5835 5836 5836 5836 5837 5838 5839 5840 5841 5841 5842 5843 5844 5844 5846 5847 5847 5848 5849 5850 5851 5851 5853 5853 5855 5855 5856 5856 5856 5856 5856 5856 5857 5859 5859
5825 5826 5826 5828 5828 5829 5830 5830 5831 5831 5832 5832 5833 5833 5833 5833 5834 5835 5835 5837 5837 5839 5840 5841 5842 5842 5843 5844 5844 5846 5847 5848 5849 5850 5850 5850 5850 5851 5851 5852 5852 5854 5855
5822 5823 5823 5823 5824 5824 5825 5825 5826 5826 5827 5827 5828 5828 5829 5829 5829 5830 5830 5831 5832 5832 5834 5835 5835 5836 5837 5837 5839 5839 5840 5842 5843 5844 5844 5844 5845 5845 5846 5847 5848 5848 5849
5816 5817 5818 5819 5819 5820 5820 5820 5821 5821 5822 5822 5823 5823 5824 5824 5824 5825 5825 5825 5826 5827 5828 5828 5829 5830 5831 5831 5832 5834 5834 5835 5836 5837 5838 5839 5839 5840 5840 5840 5842 5843 5844
5812 5813 5813 5814 5814 5815 5815 5815 5815 5816 5816 5817 5817 5817 5817 5818 5818 5819 5819 5819 5820 5820 5821 5822 5822 5823 5824 5825 5826 5826 5827 5828 5830 5830 5831 5832 5834 5834 5834 5835 5836 5837 5838
5808 5808 5808 5809 5809 5809 5809 5809 5810 5810 5810 5811 5811 5811 5811 5812 5812 5812 5813 5813 5814 5814 5814 5815 5816 5817 5818 5818 5819 5820 5820 5821 5822 5823 5824 5826 5827 5826 5828 5829 5831 5831 5832
5801 5801 5801 5801 5801 5801 5802 5802 5802 5803 5803 5803 5803 5803 5804 5804 5805 5805 5806 5806 5806 5806 5807 5809 5810 5811 5811 5811 5812 5813 5813 5814 5814 5815 5817 5817 5819 5819 5820 5821 5823 5823 5825
5794 5794 5794 5794 5795 5795 5795 5794 5794 5794 5794 5794 5794 5794 5795 5795 5796 5796 5797 5797 5798 5799 5800 5800 5801 5802 5803 5803 5804 5805 5806 5806 5806 5807 5808 5809 5809 5811 5812 5813 5814 5815 5817
5787 5787 5787 5787 5787 5786 5786 5786 5786 5785 5785 5785 5785 5785 5784 5784 5785 5786 5786 5787 5787 5788 5789 5790 5791 5792 5793 5794 5794 5795 5796 5797 5797 5798 5799 5800 5801 5802 5804 5804 5806 5807 5809
5778 5778 5777 5777 5777 5777 5777 5776 5776 5776 5776 5775 5774 5774 5774 5773 5773 5774 5775 5775 5776 5776 5777 5777 5779 5780 5781 5783 5784 5784 5785 5786 5786 5787 5788 5789 5791 5793 5794 5796 5797 5799 5800
5768 5768 5768 5768 5767 5767 5767 5767 5767 5766 5765 5765 5764 5764 5764 5763 5763 5763 5763 5763 5763 5764 5765 5765 5766 5767 5769 5770 5771 5771 5772 5773 5774 5774 5775 5777 5779 5780 5783 5786 5787 5789 5790
5758 5758 5757 5756 5756 5756 5755 5755 5755 5754 5754 5754 5753 5753 5753 5753 5752 5752 5751 5751 5751 5752 5752 5753 5753 5753 5755 5757 5759 5759 5758 5759 5759 5761 5763 5764 5766 5768 5770 5773 5775 5777 5779
5747 5746 5745 5745 5744 5743 5743 5743 5742 5742 5742 5742 5742 5741 5741 5740 5739 5739 5739 5738 5738 5738 5739 5739 5739 5739 5740 5742 5743 5745 5748 5746 5746 5748 5750 5751 5754 5755 5757 5759 5762 5764 5766
5735 5734 5733 5732 5731 5730 5729 5729 5729 5729 5729 5729 5728 5727 5727 5726 5726 5725 5724 5724 5723 5723 5724 5724 5724 5725 5725 5726 5728 5729 5731 5734 5736 5732 5732 5735 5739 5741 5743 5745 5747 5749 5752
5723 5722 5720 5719 5718 5717 5716 5715 5715 5714 5714 5713 5713 5712 5711 5710 5710 5709 5708 5708 5707 5707 5707 5708 5707 5707 5708 5709 5711 5712 5712 5714 5718 5724 5718 5717 5721 5724 5727 5729 5731 5733 5736
5709 5707 5705 5704 5704 5702 5701 5700 5699 5698 5697 5696 5696 5695 5694 5693 5693 5692 5691 5690 5689 5689 5689 5689 5689 5688 5688 5689 5690 5692 5693 5693 5695 5700 5705 5707 5704 5704 5708 5710 5713 5716 5718
5693 5690 5689 5688 5687 5686 5684 5683 5682 5681 5679 5678 5677 5676 5675 5675 5674 5673 5672 5671 5670 5670 5669 5669 5669 5668 5668 5668 5669 5669 5670 5672 5673 5676 5681 5683 5686 5685 5688 5689 5691 5696 5699
Wind_Speed
12 13 14 15 15 16 15 15 15 14 14 14 15 14 13 12 12 10 9 9 8 7 7 6 6 6 4 5 5 7 10 11 12 12 14 13 12 13 13 12 13 12 9
12 12 12 14 15 16 17 17 16 15 15 16 16 15 16 15 13 13 13 12 12 11 9 8 8 9 10 9 8 8 9 9 11 12 12 13 11 11 12 12 13 15 14
16 15 14 14 15 16 16 16 17 17 17 16 17 18 17 15 15 14 14 13 13 12 12 13 12 12 11 10 10 9 10 10 10 11 11 12 12 10 10 10 10 11 12
18 18 17 17 17 17 16 16 17 17 17 16 16 17 17 17 16 16 15 15 15 15 15 14 14 15 14 12 11 12 12 12 12 14 13 12 13 11 10 10 9 9 10
19 19 19 19 19 19 19 19 18 18 18 17 17 18 18 18 18 17 17 17 17 17 17 17 17 17 16 15 15 16 14 15 14 15 15 14 14 15 13 12 10 10 10
21 19 19 20 20 21 21 21 21 21 20 20 20 20 19 19 19 19 18 18 19 19 19 19 19 19 19 18 19 18 17 16 17 18 17 16 16 15 16 13 13 12 13
20 20 20 19 20 20 20 21 22 22 22 22 23 23 23 23 23 22 22 22 22 22 21 21 22 21 22 22 21 21 21 20 19 19 19 19 17 17 16 16 16 13 13
21 21 21 20 21 20 20 21 22 22 23 22 23 24 24 24 23 23 23 23 23 24 24 24 23 24 24 25 25 25 23 23 22 22 22 21 21 19 19 18 17 16 16
22 23 24 24 24 25 24 24 25 25 26 25 25 25 24 24 24 24 25 24 24 24 24 25 25 25 25 26 27 26 25 23 23 24 24 23 23 21 20 20 20 19 18
23 23 23 23 24 25 26 27 28 28 28 28 28 29 29 28 28 28 27 27 27 26 26 28 27 27 26 26 27 27 27 26 25 23 24 26 25 24 23 21 21 21 21
26 26 26 27 27 27 28 29 28 28 29 29 29 29 28 27 28 26 25 26 24 24 25 27 27 29 28 27 29 29 28 28 27 26 27 27 27 26 26 24 24 20 23
26 27 27 27 27 27 28 28 29 29 28 28 28 28 28 27 26 26 26 25 24 24 23 23 22 23 22 24 28 28 28 27 27 28 29 27 28 27 27 27 26 24 25
26 26 27 27 28 28 28 28 28 28 29 29 29 29 30 30 30 30 30 29 29 28 28 27 27 26 25 25 24 23 24 25 27 28 28 28 28 27 27 28 27 26 26
27 28 29 29 30 30 31 31 31 31 31 32 32 33 33 33 33 33 32 32 33 33 32 32 32 32 31 30 30 28 28 27 26 25 24 26 31 33 32 30 31 29 27
31 30 31 31 31 31 32 31 31 32 32 33 33 33 34 35 35 35 34 34 34 34 34 34 34 34 34 34 34 32 33 32 31 30 28 27 27 28 31 33 31 30 29
32 32 32 33 33 33 33 33 34 34 34 35 35 35 35 35 36 35 35 35 34 34 34 34 34 34 34 34 35 35 34 34 34 33 33 32 31 31 31 30 32 32 33
35 35 35 35 36 36 37 37 37 36 37 37 37 37 37 37 37 38 38 38 39 39 39 39 39 38 39 38 38 38 38 38 38 38 37 36 36 35 35 35 33 33 36
37 38 38 38 38 38 38 38 38 38 38 39 39 40 41 41 42 42 43 43 43 43 44 44 43 43 43 43 44 44 44 43 44 44 43 42 40 40 39 39 38 37 36
41 41 40 40 40 40 40 40 41 41 42 42 42 43 44 45 45 45 46 46 46 46 46 47 46 46 45 45 44 44 44 44 45 45 45 45 46 45 44 43 42 42 41
43 43 43 43 44 45 45 45 45 46 45 44 45 45 46 47 48 49 50 51 52 53 53 53 53 52 51 50 49 48 48 48 48 49 49 49 50 50 51 50 49 48 47
45 45 47 47 48 48 48 48 47 46 46 47 49 49 50 51 53 54 55 55 56 56 56 57 57 57 56 56 55 55 55 54 54 53 52 53 53 54 55 55 54 53 53
48 49 50 50 51 51 50 50 50 49 51 52 54 55 56 56 57 57 58 59 59 59 59 59 59 60 61 60 59 58 56 58 59 57 56 55 54 54 56 60 59 58 57
52 53 54 54 54 54 54 54 55 55 57 58 58 59 60 61 60 60 61 61 61 61 62 62 62 62 61 62 62 62 60 58 56 58 58 57 56 55 54 56 60 62 62
55 55 56 56 57 57 58 59 60 61 62 63 63 64 64 64 64 64 64 64 64 65 66 66 66 67 67 66 67 68 69 69 66 60 58 60 60 59 59 57 57 59 62
54 56 58 59 60 62 63 64 65 66 67 67 68 68 67 67 68 69 69 68 68 69 69 69 69 70 71 71 71 71 71 72 72 71 70 63 61 64 64 64 62 61 61
56 59 61 61 63 64 65 66 68 70 71 72 73 73 73 73 73 72 72 73 73 74 74 74 74 74 75 75 74 74 74 73 73 74 73 73 73 66 66 68 69 68 68
Wind_Direction
227 225 223 227 225 225 225 221 215 212 216 223 225 227 224 220 217 217 224 226 233 238 249 275 301 304 320 294 335 349 345 344 342 341 341 350 356 352 358 358 358 355 359
228 231 235 239 235 234 230 227 227 225 229 232 235 235 235 235 233 231 226 224 224 231 250 262 262 276 288 312 315 332 324 328 335 330 329 334 342 348 341 349 355 353 352
228 226 230 234 239 239 237 235 232 234 232 235 242 244 247 246 246 248 247 249 251 246 242 241 251 261 268 275 293 304 304 315 320 324 320 322 327 330 330 338 341 344 340
230 227 231 233 237 246 245 243 239 237 239 233 236 242 244 249 251 253 257 255 255 256 261 265 263 263 264 270 278 285 290 302 308 310 316 314 312 315 313 317 320 324 329
237 237 236 239 241 243 246 251 251 250 245 246 246 245 243 247 252 253 254 255 258 259 260 262 264 266 274 282 279 276 285 292 296 297 304 306 304 307 309 310 312 312 318
234 238 239 241 245 247 250 251 251 252 253 251 252 253 255 254 252 253 255 255 257 257 257 260 259 264 267 269 270 274 279 284 284 289 292 294 298 300 303 304 301 309 316
233 232 234 236 240 242 248 252 254 255 255 255 257 257 258 258 259 260 259 259 260 262 263 264 264 264 264 266 265 268 268 269 273 278 282 287 289 290 290 293 296 297 305
235 235 235 234 237 237 242 248 252 254 256 258 259 261 262 264 264 264 264 263 261 261 261 261 263 263 264 263 263 263 264 266 269 273 278 282 283 282 288 289 295 294 298
237 240 240 242 245 245 245 245 248 251 254 255 256 258 260 261 261 261 260 261 261 261 260 259 260 260 261 261 263 265 268 271 270 271 276 279 279 283 282 284 289 293 294
242 242 242 244 244 247 246 248 251 251 255 258 260 261 260 261 261 260 259 259 258 258 259 260 259 258 258 260 261 262 264 268 272 275 275 279 281 280 279 281 284 286 287
244 247 248 248 249 249 250 253 254 254 256 257 259 261 261 261 262 264 263 264 264 264 261 259 261 263 261 259 258 260 261 262 263 268 269 271 274 278 281 278 278 277 281
244 245 247 248 248 247 247 247 250 252 253 254 256 257 260 261 262 262 263 262 264 263 263 262 260 262 266 266 264 264 265 265 266 266 266 271 273 273 275 279 278 279 278
242 243 244 245 247 248 248 250 251 252 254 255 255 256 257 257 259 261 262 265 265 265 264 265 265 265 265 267 267 268 269 271 272 271 272 273 273 276 281 280 279 278 275
250 250 249 249 250 251 251 252 252 253 254 255 257 259 260 261 262 262 263 265 266 267 267 267 268 270 270 269 269 269 269 268 268 270 270 269 271 274 278 281 280 278 277
250 251 252 254 255 255 256 256 256 256 257 258 258 260 261 262 263 264 264 264 264 265 267 269 270 271 272 274 274 274 274 272 271 271 269 269 272 272 272 274 277 280 279
255 255 255 255 256 257 258 259 259 260 260 261 261 261 262 262 263 263 264 265 266 266 266 266 267 268 270 272 274 274 274 274 275 275 275 274 271 270 272 274 270 271 274
257 256 256 256 256 256 257 257 258 258 259 260 261 262 263 264 266 267 268 269 269 269 270 270 270 270 270 270 270 272 273 275 275 275 275 274 274 274 273 270 270 269 270
261 260 259 258 258 259 259 260 261 262 264 265 266 267 268 269 269 269 269 269 269 269 269 267 268 268 269 270 271 270 270 269 271 273 273 274 273 273 275 275 274 271 271
263 262 262 263 263 263 264 265 266 267 267 268 269 270 270 271 272 272 273 273 273 273 272 272 271 271 271 270 269 271 272 272 271 270 270 271 272 273 274 274 275 275 274
262 262 263 264 264 265 266 267 267 267 268 269 270 270 271 273 273 274 275 275 275 276 276 275 275 274 274 275 274 274 274 274 273 273 273 273 273 274 274 274 274 274 275
263 263 264 265 266 267 267 266 266 266 268 270 271 273 274 274 274 274 274 274 273 273 273 273 274 274 274 272 271 272 272 272 272 271 271 271 271 271 273 273 273 271 271
263 264 265 266 266 265 264 263 265 267 269 270 271 272 272 273 273 273 273 273 274 273 274 274 273 273 272 271 271 269 267 269 268 268 268 268 268 269 268 267 267 267 268
265 265 266 265 265 264 264 265 266 268 269 271 271 272 272 271 272 272 272 273 273 273 272 272 272 272 272 271 270 269 266 264 263 268 268 266 265 266 267 268 267 265 264
267 267 266 265 264 265 266 267 268 270 271 272 273 273 272 272 272 273 273 273 273 273 273 273 273 274 274 273 272 271 270 268 265 260 267 268 266 264 263 265 266 265 264
267 265 264 265 266 266 266 267 269 270 272 273 274 273 273 273 273 274 274 273 273 273 273 274 274 275 275 275 274 273 272 271 269 267 263 262 267 267 266 265 264 265 265
266 264 265 266 266 266 267 268 269 270 272 273 273 273 274 274 273 274 273 273 274 274 274 275 275 276 277 277 278 277 275 272 271 269 266 265 263 267 267 266 264 263 262